EW8832 Weather Reports


Display with metric or nautical units.
time (UTC)temp
F
wind
direction
speed
MPH
gust
MPH
rain 1hr
in
rain 24hr
in
rain mn
in
humidity
%
barometer
mb
20260507200022 65 202 3.0 6.0 0.00 0.00 0.00 45 1014.8
20260507194520 65 254 4.0 12.0 0.00 0.00 0.00 45 1015.2
20260507193024 65 219 5.0 11.0 0.00 0.00 0.00 47 1015.4
20260507190014 64 234 3.0 10.0 0.00 0.00 0.00 45 1015.7
20260507184513 64 294 2.0 8.0 0.00 0.00 0.00 48 1015.9
20260507183019 63 278 7.0 10.0 0.00 0.00 0.00 52 1015.8
20260507180005 63 328 3.0 10.0 0.00 0.00 0.00 46 1016.4
20260507174504 63 47 2.0 6.0 0.00 0.00 0.00 46 1016.8
20260507173004 63 279 4.0 10.0 0.00 0.00 0.00 46 1017.0
20260507170000 62 276 1.0 11.0 0.00 0.00 0.00 51 1017.3
20260507164600 61 325 3.0 10.0 0.00 0.00 0.00 47 1017.5
20260507163057 60 346 2.0 8.0 0.00 0.00 0.00 48 1017.8
20260507161655 60 296 5.0 9.0 0.00 0.00 0.00 47 1018.0
20260507160055 60 240 1.0 5.0 0.00 0.00 0.00 51 1018.0
20260507154552 60 271 1.0 8.0 0.00 0.00 0.00 53 1018.2
20260507153056 59 246 0.0 5.0 0.00 0.00 0.00 55 1018.2
20260507151646 58 230 1.0 6.0 0.00 0.00 0.00 53 1018.3
20260507150049 57 218 2.0 4.0 0.00 0.00 0.00 56 1018.3
20260507144546 56 221 0.0 5.0 0.00 0.00 0.00 65 1018.2
20260507143039 55 174 0.0 6.0 0.00 0.00 0.00 69 1018.2
20260507141637 54 207 1.0 4.0 0.00 0.00 0.00 72 1018.3
20260507140029 52 170 2.0 6.0 0.00 0.00 0.00 77 1018.2
20260507134526 51 163 4.0 7.0 0.00 0.00 0.00 80 1018.4
20260507133022 49 169 4.0 5.0 0.00 0.00 0.00 83 1018.3
20260507131618 48 62 2.0 4.0 0.00 0.00 0.00 91 1018.4
20260507130014 47 9 0.0 2.0 0.00 0.00 0.00 94 1018.2
20260507124517 45 9 1.0 2.0 0.00 0.00 0.00 94 1018.1
20260507123010 43 14 0.0 2.0 0.00 0.00 0.00 94 1017.8
20260507121611 41 14 2.0 3.0 0.00 0.00 0.00 94 1017.7
20260507120027 40 13 0.0 2.0 0.00 0.00 0.00 94 1017.8
20260507114510 39 13 0.0 2.0 0.00 0.00 0.00 93 1017.6
20260507113032 39 13 0.0 1.0 0.00 0.00 0.00 93 1017.6
20260507111607 39 13 0.0 2.0 0.00 0.00 0.00 93 1017.7
20260507110011 39 13 0.0 3.0 0.00 0.00 0.00 93 1017.4
20260507104505 39 12 1.0 3.0 0.00 0.00 0.00 92 1017.2
20260507103006 39 12 0.0 0.0 0.00 0.00 0.00 92 1017.3
20260507101604 39 12 0.0 0.0 0.00 0.00 0.00 92 1017.3
20260507100002 39 12 0.0 0.0 0.00 0.00 0.00 92 1017.6
20260507094501 39 12 0.0 0.0 0.00 0.00 0.00 91 1017.4
20260507093059 40 12 0.0 0.0 0.00 0.00 0.00 91 1017.5
20260507091558 40 12 0.0 0.0 0.00 0.00 0.00 91 1017.2
20260507090057 40 12 0.0 0.0 0.00 0.00 0.00 91 1017.4
20260507084602 40 12 0.0 0.0 0.00 0.00 0.00 89 1017.3
20260507083054 41 12 0.0 0.0 0.00 0.00 0.00 88 1017.1
20260507081552 42 12 0.0 2.0 0.00 0.00 0.00 88 1017.1
20260507080051 42 12 0.0 1.0 0.00 0.00 0.00 86 1017.0
20260507074550 43 12 0.0 1.0 0.00 0.00 0.00 84 1016.9
20260507073104 44 12 0.0 2.0 0.00 0.00 0.00 83 1017.0
20260507071543 45 12 0.0 1.0 0.00 0.00 0.00 81 1017.1
20260507070043 45 12 0.0 1.0 0.00 0.00 0.00 80 1017.2
20260507064546 46 12 0.0 1.0 0.00 0.00 0.00 79 1017.4
20260507063046 46 12 1.0 4.0 0.00 0.00 0.00 79 1017.2
20260507061539 46 11 1.0 3.0 0.00 0.00 0.00 79 1017.1
20260507060033 46 11 1.0 3.0 0.00 0.00 0.00 79 1017.1
20260507054532 46 13 0.0 3.0 0.00 0.00 0.00 79 1017.1
20260507053035 47 13 0.0 2.0 0.00 0.00 0.00 78 1017.1
20260507051530 47 13 0.0 2.0 0.00 0.00 0.00 78 1016.9
20260507050032 47 13 0.0 1.0 0.00 0.00 0.00 76 1016.8
20260507044529 48 13 0.0 2.0 0.00 0.00 0.00 76 1016.7
20260507043031 48 14 0.0 3.0 0.00 0.00 0.00 75 1016.6
20260507041534 49 17 0.0 3.0 0.00 0.00 0.00 75 1016.6
20260507040027 49 22 0.0 3.0 0.00 0.00 0.00 75 1016.5
20260507034627 50 24 0.0 2.0 0.00 0.00 0.00 74 1016.4
20260507033025 50 24 0.0 2.0 0.00 0.00 0.00 73 1016.5
20260507031524 51 24 0.0 4.0 0.00 0.00 0.00 72 1016.4
20260507030024 51 74 0.0 2.0 0.00 0.00 0.00 72 1016.2
20260507024528 51 74 0.0 1.0 0.00 0.00 0.00 73 1015.8
20260507023025 52 74 0.0 0.0 0.00 0.00 0.00 72 1015.8
20260507021524 52 74 0.0 3.0 0.00 0.00 0.00 71 1015.7
20260507020026 53 86 0.0 2.0 0.00 0.00 0.00 72 1015.5
20260507014526 54 86 0.0 0.0 0.00 0.00 0.00 71 1015.3
20260507013023 54 86 0.0 0.0 0.00 0.00 0.00 70 1015.2
20260507011523 55 86 0.0 1.0 0.00 0.00 0.00 70 1015.0
20260507010032 57 86 1.0 4.0 0.00 0.00 0.00 67 1015.1
20260507004525 57 59 2.0 5.0 0.00 0.00 0.00 60 1014.9
20260507003022 57 88 1.0 3.0 0.00 0.00 0.00 65 1015.0
20260507001528 58 88 2.0 7.0 0.00 0.00 0.00 62 1014.9
20260507000027 58 76 5.0 9.0 0.00 0.00 0.00 56 1014.8
20260506234542 58 85 6.0 11.0 0.00 0.00 0.00 57 1014.8
20260506233022 59 58 7.0 11.0 0.00 0.00 0.00 56 1014.7
20260506231521 59 61 5.0 13.0 0.00 0.00 0.00 55 1014.8
20260506230019 59 57 3.0 10.0 0.00 0.00 0.00 60 1014.5
20260506224526 58 40 5.0 14.0 0.00 0.00 0.00 60 1014.1
20260506223021 58 82 5.0 14.0 0.00 0.00 0.00 60 1013.8
20260506221517 58 19 7.0 13.0 0.00 0.00 0.00 63 1013.4
20260506220030 58 80 7.0 13.0 0.00 0.00 0.00 63 1013.5
20260506214518 58 38 5.0 13.0 0.00 0.00 0.00 63 1013.9
20260506213017 58 57 4.0 13.0 0.00 0.00 0.00 64 1013.9
20260506211520 57 27 6.0 12.0 0.00 0.00 0.00 64 1014.1
20260506210015 57 28 4.0 13.0 0.00 0.00 0.00 63 1014.1
20260506204516 57 81 6.0 12.0 0.00 0.00 0.00 64 1014.6
20260506203015 58 66 10.0 13.0 0.00 0.00 0.00 62 1014.6
20260506201515 58 17 7.0 11.0 0.00 0.00 0.00 62 1014.9